Weather History for Estherville, IA

Change the Weather History Date:

Saturday, June 29, 2013

  Actual Average Record
Temperature  
Mean Temperature 69 °F 71 °F  
Max Temperature 79 °F 83 °F 99 °F (1988)
Min Temperature 59 °F 60 °F 47 °F (1950)
Degree Days  
Heating Degree Days 0 0  
Month to date heating degree days 54 40  
Since 1 June heating degree days 54 40  
Since 1 July heating degree days 7910 7738  
Cooling Degree Days 4 7  
Month to date cooling degree days 148 129  
Year to date cooling degree days 181 165  
Since 1 June cooling degree days 148 129  
Growing Degree Days 20 (Base 50)    
Moisture  
Dew Point 56 °F    
Average Humidity 62    
Maximum Humidity 84    
Minimum Humidity 39    
Precipitation  
Precipitation T in 0.15 in 3.26 in (1969)
Month to date precipitation 2.49 4.42  
Sea Level Pressure  
Sea Level Pressure 29.87 in    
Wind  
Wind Speed 15 mph (North)    
Max Wind Speed 29 mph    
Max Gust Speed 37 mph    
Visibility 10 miles    
Events Rain    
T = Trace of Precipitation, MM = Missing Value Source: NWS Daily Summary

Daily Weather History Graph

Daily Weather History Graph

Search for Another Location

Airport:

Trip Planner

Search our weather history database for the weather conditions in past years. The results will help you decide how hot, cold, wet, or windy it might be!

Date:

Astronomy

Jun. 29, 2013 Rise Set
Actual Time 5:41 AM CDT 9:03 PM CDT
Civil Twilight 5:05 AM CDT 9:39 PM CDT
Nautical Twilight 4:19 AM CDT 10:25 PM CDT
Astronomical Twilight 3:21 AM CDT 11:23 PM CDT
Moon 12:20 AM CDT (6/29) 1:07 PM CDT (6/29)
Length of Visible Light 16h 33m
Length of Day
15h 22m
Waning Gibbous, 55% of the Moon is Illuminated
Jun 29
Waning Gibbous
Jun 29
Last Quarter
Jul 8
New
Jul 15
First Quarter
Jul 22
Full

Hourly Weather History & Observations

Time (CDT) Temp. Dew Point Humidity Pressure Visibility Wind Dir Wind Speed Gust Speed Precip Events Conditions
12:52 AM 68.0 °F 55.9 °F 65% 29.81 in 10.0 mi NW 11.5 mph - N/A   Clear
1:52 AM 66.0 °F 55.9 °F 70% 29.81 in 10.0 mi NW 8.1 mph - N/A   Clear
2:52 AM 64.9 °F 55.9 °F 73% 29.81 in 10.0 mi NW 10.4 mph - N/A   Clear
3:52 AM 64.0 °F 57.0 °F 78% 29.81 in 10.0 mi NW 10.4 mph - N/A   Clear
4:52 AM 64.0 °F 57.0 °F 78% 29.81 in 10.0 mi NW 11.5 mph - N/A   Clear
5:52 AM 63.0 °F 57.0 °F 81% 29.82 in 10.0 mi NW 11.5 mph - N/A   Clear
6:52 AM 64.0 °F 57.0 °F 78% 29.82 in 10.0 mi NW 13.8 mph - N/A   Clear
7:08 AM 64.4 °F 57.2 °F 77% 29.84 in 10.0 mi NNW 17.3 mph 21.9 mph N/A   Mostly Cloudy
7:52 AM 64.9 °F 57.0 °F 75% 29.83 in 10.0 mi NNW 19.6 mph 26.5 mph N/A   Overcast
8:52 AM 66.0 °F 57.9 °F 75% 29.83 in 10.0 mi NNW 20.7 mph 33.4 mph N/A   Overcast
9:52 AM 68.0 °F 57.9 °F 70% 29.84 in 10.0 mi North 27.6 mph 34.5 mph N/A   Mostly Cloudy
10:26 AM 66.2 °F 59.0 °F 78% 29.87 in 10.0 mi North 21.9 mph 27.6 mph 0.00 in Rain Light Rain
10:52 AM 68.0 °F 57.0 °F 68% 29.87 in 10.0 mi North 19.6 mph 28.8 mph 0.00 in   Overcast
11:27 AM 71.6 °F 57.2 °F 60% 29.89 in 10.0 mi North 21.9 mph 28.8 mph N/A   Overcast
11:52 AM 72.0 °F 57.9 °F 61% 29.87 in 10.0 mi North 24.2 mph 29.9 mph N/A   Mostly Cloudy
12:52 PM 72.0 °F 55.0 °F 55% 29.89 in 10.0 mi North 20.7 mph - N/A   Mostly Cloudy
1:52 PM 75.0 °F 53.1 °F 46% 29.88 in 10.0 mi North 20.7 mph 29.9 mph N/A   Scattered Clouds
2:52 PM 73.9 °F 53.1 °F 48% 29.89 in 10.0 mi NNE 17.3 mph - N/A   Mostly Cloudy
3:52 PM 73.9 °F 51.1 °F 45% 29.90 in 10.0 mi NNE 18.4 mph 25.3 mph N/A   Mostly Cloudy
4:52 PM 79.0 °F 52.0 °F 39% 29.88 in 10.0 mi North 18.4 mph 25.3 mph N/A   Mostly Cloudy
5:21 PM 73.4 °F 55.4 °F 53% 29.91 in 10.0 mi NE 13.8 mph - N/A   Overcast
5:52 PM 75.9 °F 55.9 °F 50% 29.89 in 10.0 mi NNE 18.4 mph 23.0 mph N/A   Scattered Clouds
6:52 PM 75.9 °F 52.0 °F 43% 29.89 in 10.0 mi North 19.6 mph 28.8 mph N/A   Clear
7:52 PM 73.9 °F 53.1 °F 48% 29.91 in 10.0 mi NE 17.3 mph - N/A   Mostly Cloudy
8:52 PM 70.0 °F 54.0 °F 57% 29.93 in 10.0 mi NNE 12.7 mph - N/A   Scattered Clouds
9:52 PM 66.0 °F 55.0 °F 68% 29.94 in 10.0 mi NNE 8.1 mph - N/A   Scattered Clouds
10:52 PM 62.1 °F 55.0 °F 78% 29.96 in 10.0 mi NNE 8.1 mph - N/A   Clear
11:52 PM 63.0 °F 55.0 °F 75% 29.97 in 10.0 mi North 5.8 mph - N/A   Mostly Cloudy